Renton, WA
on Sunday, February 24, 2013

Sunday
Previous Day Next Day
Daily Summary
 ActualAverage (KSEA)Record (KSEA)
Temperature
Mean Temperature °F 44°F  
Max Temperature 48°F 51°F 62°F (1949)
Min Temperature 42°F 37°F 24°F (2011)
Degree Days
Heating Degree Days 20 21  
Month to date heating degree days 522  
Since 1 July heating degree days 3171  
Cooling Degree Days 0 0  
Month to date cooling degree days 0  
Year to date cooling degree days 0  
Moisture
Dew Point 34°F   
Average Humidity 67    
Maximum Humidity 76    
Minimum Humidity 56    
Precipitation
Precipitation 0.00 in 0.12 in 1.55 in (1961)
Month to date precipitation 3.00  
Year to date precipitation 8.57  
Snow
Snow 0.00 in in 0.70 in (1994)
Month to date snowfall  
Since 1 July snowfall  
Snow Depth in   
Wind
Wind Speed 7 mph   
Max Wind Speed 13 mph   
Max Gust Speed 24 mph   
Visibility 10 miles   
Events     

Key: T is trace of precipitation, MM is missing value
Source: NWS Daily Summary
Time(PST)TemperatureDew PointHumidity Pressure Visibility Wind DirectionWind SpeedGust SpeedPrecipitationEvents Conditions
12:25 AM 42.8°F 33.8°F 70% 30.38 in 10.0 miles SSE 6.9 mph - N/A   Overcast
12:53 AM 42.1°F 34.0°F 73% 30.40 in 10.0 miles SSE 6.9 mph - N/A   Overcast
1:01 AM 42.8°F 33.8°F 70% 30.38 in 10.0 miles SSE 8.1 mph - N/A   Overcast
1:53 AM 42.1°F 34.0°F 73% 30.40 in 10.0 miles SE 8.1 mph - N/A   Overcast
2:11 AM 42.8°F 33.8°F 70% 30.38 in 10.0 miles SSE 8.1 mph - N/A   Overcast
2:36 AM 42.8°F 33.8°F 70% 30.39 in 10.0 miles SSE 8.1 mph - N/A   Overcast
2:53 AM 42.1°F 35.1°F 76% 30.40 in 10.0 miles SSE 5.8 mph - N/A   Overcast
3:53 AM 42.1°F 35.1°F 76% 30.40 in 10.0 miles SSE 5.8 mph - N/A   Overcast
4:53 AM 42.1°F 34.0°F 73% 30.39 in 10.0 miles South 6.9 mph - N/A   Overcast
5:53 AM 42.1°F 34.0°F 73% 30.38 in 10.0 miles SSE 5.8 mph - N/A   Overcast
6:53 AM 42.1°F 33.1°F 70% 30.37 in 10.0 miles SSE 9.2 mph - N/A   Overcast
7:53 AM 42.1°F 34.0°F 73% 30.37 in 10.0 miles SE 5.8 mph - N/A   Overcast
8:53 AM 43.0°F 34.0°F 71% 30.37 in 10.0 miles SE 3.5 mph - N/A   Overcast
9:53 AM 46.0°F 33.1°F 61% 30.35 in 10.0 miles SSE 10.4 mph - N/A   Overcast
10:53 AM 48.0°F 33.1°F 56% 30.34 in 10.0 miles South 8.1 mph - N/A   Overcast
11:53 AM 48.0°F 34.0°F 58% 30.33 in 10.0 miles South 9.2 mph - N/A   Overcast
12:53 PM 48.0°F 34.0°F 58% 30.30 in 10.0 miles SSE 12.7 mph 18.4 mph N/A   Overcast
1:53 PM 46.9°F 34.0°F 61% 30.28 in 10.0 miles South 9.2 mph - N/A   Overcast
2:53 PM 48.0°F 34.0°F 58% 30.25 in 10.0 miles SSE 11.5 mph 18.4 mph N/A   Overcast
3:53 PM 48.0°F 34.0°F 58% 30.22 in 10.0 miles SSE 9.2 mph - N/A   Overcast
4:53 PM 48.0°F 35.1°F 61% 30.19 in 10.0 miles SE 6.9 mph - 0.00 in   Overcast
5:53 PM 46.0°F 37.9°F 73% 30.16 in 10.0 miles ESE 6.9 mph - N/A   Overcast
6:53 PM 46.0°F 37.0°F 71% 30.14 in 10.0 miles ESE 3.5 mph - N/A   Overcast
7:53 PM 46.0°F 35.1°F 66% 30.10 in 10.0 miles ESE 4.6 mph - N/A   Overcast
8:53 PM 46.0°F 36.0°F 68% 30.07 in 10.0 miles ESE 4.6 mph - N/A   Overcast
9:53 PM 45.0°F 37.0°F 74% 30.05 in 10.0 miles East 5.8 mph - N/A   Overcast
10:53 PM 46.0°F 35.1°F 66% 30.01 in 10.0 miles ESE 5.8 mph - 0.00 in   Overcast
11:53 PM 46.9°F 32.0°F 56% 29.97 in 10.0 miles SSE 12.7 mph 24.2 mph 0.00 in   Overcast
Moon Phase
Feb. 24 Feb. 25 Mar. 04 Mar. 11 Mar. 19
Sunrise:06:57 AM (PST) Moon Rise:05:03 PM (PST)2/24
Sunset:05:46 PM (PST) Moon Set:05:59 AM (PST)2/24

Copyright © 2014 The Weather Underground, Inc.